GSAT0220 (PRN E13) (43567 NORAD) Tracking and Keplerian Element Data

This shows tracking and keplerian element data for the satellite.

Feedback or suggestion? Click here.




ElementValue
Catalog43567
NameGSAT0220 (PRN E13)
Epoch Orbit189
Epoch Day317.35453614
Epoch Year2018
RAAN57.0611
Inclination56.4075
Eccentricity0.0003805
Argument of Perigee252.7939
Mean Anonmoly107.1703
Mean Motion1.70476473
Decay Rate-6.4E-07
L11 43567U 18060D 18317.35453614 -.00000064 00000-0 00000+0 0 9991
L22 43567 56.4075 57.0611 0003805 252.7939 107.1703 1.70476473 1893

Live tracking and technical data element details for GSAT0220 (PRN E13) (NORAD 43567). GSAT0220 (PRN E13) can be tracked NOW for your location showing map with azimuth and elevation plus other details from your city location.

Track the satellite on the map from your city or location and see movement details for azimuth, elevation, latitude, longitude, range, height, and movement on the map or in text.







IsCatalogInMostPopularTable: catalog: 43567, numindb: 40
Update: records affected: 1



GetName: 43567 GSAT0220 (PRN E13)

Hit Count: updated at: Fri, 16 Nov 2018 03:46:28 GMT